Location: Harwich
(41.7160°N, 69.9939°W)
Time: 14:16:53
(UTC+01:00)

A-11 Canister half - Pass Details

Date: 02 December 2023
Orbit: 1526 x 1682 km, 47.3° (Epoch: 01 March)

Event Time Altitude Azimuth Distance (km) Brightness Sun altitude
Rises 06:37:23 0° 294° (WNW) 4,906 - -65.6°
Reaches altitude 10° 06:40:34 10° 295° (WNW) 3,901 - -65.2°
Maximum altitude 06:50:35 88° 25° (NNE) 1,620 - -63.9°
Drops below altitude 10° 07:00:14 10° 117° (ESE) 3,769 - -62.5°
Exits shadow 07:03:08 - 117° (ESE) 4,692 11.7 -62.1°
Sets 07:03:16 0° 117° (ESE) 4,733 11.7 -62.1°
